Home > Weather > Quispamsis > Past weeks

Flag for Canada Weather for the Past 2 Weeks in Quispamsis, New Brunswick, Canada

Now
39 °F

Overcast.


Feels Like: 35 °F
Forecast: 39 / 48 °F
Wind: 6 mph from South

Location: Saint John

Current Time: May 2, 2016 at 6:06:34 AM

Latest Report: May 2, 2016 at 5:00 AM


Visibility: 15 mi

Pressure: 30.19 "Hg

Humidity: 87%

Dew Point: 36 °F

Location of QuispamsisLocation

Historic Weather in Quispamsis — Graph

°F

Quispamsis Temperature Yesterday

Maximum temperature yesterday: 61 °F (at 3:00 PM)
Minimum temperature yesterday: 23 °F (at 4:00 AM)
Average temperature yesterday: 44 °F

High & Low Weather Summary for the Past Weeks

 TemperatureHumidityPressure
High72 °F (Apr 22, 2:00 PM)100% (Apr 17, 8:00 AM)30.46 "Hg (Apr 17, 8:00 AM)
Low18 °F (Apr 29, 6:00 AM)14% (Apr 30, 3:00 PM)29.73 "Hg (Apr 23, 5:00 PM)
Average41 °F55%30.00 "Hg
* Reported Apr 17 5:00 AM — May 2 5:00 AM, Quispamsis, Weather by CustomWeather, © 2016

Note: Actual official high and low records may vary slightly from our data, if they occured in-between our weather recording intervals... More about our weather records

Advertising

Quispamsis Weather History for the Previous 24 Hours

Scroll right to see more
 ConditionsComfort  
Time TempWeatherWind HumidityBarometerVisibility
5:00 AM
Mon, May 2
39 °FOvercast.6 mph87%30.19 "Hg15 mi
4:00 AM39 °FOvercast.5 mph87%30.19 "Hg15 mi
3:00 AM41 °FOvercast.2 mph81%30.20 "Hg15 mi
2:00 AM41 °FOvercast.3 mph81%30.21 "Hg15 mi
1:00 AM41 °FOvercast.2 mph76%30.21 "Hg15 mi
12:00 AM43 °FOvercast.No wind76%30.20 "Hg15 mi
11:00 PM
Sun, May 1
43 °FOvercast.8 mph76%30.21 "Hg15 mi
10:00 PM45 °FOvercast.7 mph66%30.22 "Hg15 mi
9:00 PM45 °FPartly sunny.8 mph57%30.21 "Hg15 mi
8:00 PM50 °FPartly sunny.12 mph54%30.20 "Hg15 mi
7:00 PM54 °FPartly sunny.8 mph41%30.21 "Hg15 mi
6:00 PM57 °FPartly sunny.9 mph31%30.21 "Hg15 mi
5:00 PM57 °FPartly sunny.12 mph33%30.23 "Hg15 mi
4:00 PM57 °FPartly sunny.14 mph36%30.24 "Hg15 mi
3:00 PM61 °FPartly sunny.13 mph23%30.23 "Hg15 mi
2:00 PM59 °FPartly sunny.7 mph29%30.25 "Hg15 mi
1:00 PM59 °FPartly sunny.9 mph29%30.26 "Hg15 mi
12:00 PM55 °FPartly sunny.7 mph36%30.27 "Hg15 mi
11:00 AM54 °FPartly sunny.6 mph44%30.27 "Hg15 mi
10:00 AM52 °FScattered clouds.3 mph44%30.28 "Hg15 mi
9:00 AM48 °FPassing clouds.3 mph50%30.27 "Hg15 mi
8:00 AM37 °FPassing clouds.No wind75%30.27 "Hg15 mi
7:00 AM27 °FPassing clouds.No wind86%30.25 "Hg15 mi
6:00 AM23 °FPassing clouds.2 mph93%30.24 "Hg15 mi
Weather by CustomWeather, © 2016

See weather overviewHow to use our weather pages